This is the latest recevied weather packets stored in our database for station/object SR4DIG-13. If no packets are shown the sender has not sent any weather packets the latest 10 day(s).
| Time | Temp. | Humidity | Pressure | Rain* | Wind** | Luminosity | Snow |
|---|---|---|---|---|---|---|---|
| 1777871940 | 17.22° C | 43% | 1012.6 hPa | 0 mm | - | - | - |
| 1777871735 | 17.22° C | 43% | 1012.6 hPa | 0 mm | - | - | - |
| 1777871434 | 17.22° C | 43% | 1012.6 hPa | 0 mm | - | - | - |
| 1777871133 | 16.67° C | 44% | 1012.7 hPa | 0 mm | - | - | - |
| 1777870706 | 16.67° C | 45% | 1012.7 hPa | 0 mm | - | - | - |
| 1777870405 | 16.11° C | 45% | 1012.8 hPa | 0 mm | - | - | - |
| 1777870105 | 16.11° C | 46% | 1012.8 hPa | 0 mm | - | - | - |
| 1777869803 | 15° C | 48% | 1012.8 hPa | 0 mm | - | - | - |
| 1777869314 | 15° C | 48% | 1012.6 hPa | 0 mm | - | - | - |
| 1777869140 | 14.44° C | 49% | 1012.7 hPa | 0 mm | - | - | - |
| 1777869014 | 14.44° C | 49% | 1012.7 hPa | 0 mm | - | - | - |
| 1777868713 | 14.44° C | 50% | 1012.7 hPa | 0 mm | - | - | - |
| 1777868412 | 13.89° C | 51% | 1012.7 hPa | 0 mm | - | - | - |
| 1777868111 | 13.89° C | 51% | 1012.7 hPa | 0 mm | - | - | - |
| 1777867810 | 13.33° C | 51% | 1012.7 hPa | 0 mm | - | - | - |
| 1777867509 | 13.33° C | 52% | 1012.6 hPa | 0 mm | - | - | - |
| 1777867209 | 12.78° C | 52% | 1012.6 hPa | 0 mm | - | - | - |
| 1777866908 | 12.78° C | 52% | 1012.7 hPa | 0 mm | - | - | - |
| 1777866607 | 12.78° C | 53% | 1012.6 hPa | 0 mm | - | - | - |
| 1777865704 | 12.22° C | 53% | 1012.6 hPa | 0 mm | - | - | - |
| 1777863914 | 11.67° C | 52% | 1012.7 hPa | 0 mm | - | - | - |
| 1777863613 | 12.22° C | 51% | 1012.7 hPa | 0 mm | - | - | - |
| 1777862711 | 12.78° C | 50% | 1012.7 hPa | 0 mm | - | - | - |
| 1777847692 | 15.56° C | 43% | 1013 hPa | 0 mm | - | - | - |
| 1777847391 | 15.56° C | 43% | 1013 hPa | 0 mm | - | - | - |
* Rain since midnight (hover to see other rain measurements)
** Current wind speed in m/s (hover to see current wind gust speed)